Flag for Germany Weather past 2 weeks in Meiningen, Thuringia, Germany

Now
56 °F

Overcast.


Feels Like: 56 °F
Forecast: 56 / 73 °F
Wind: 3 mph from Southwest

Location: Meiningen

Current Time: May 4, 2015 at 6:16:44 AM

Latest Report: May 4, 2015 at 5:00 AM


Visibility: 44 mi

Pressure: 29.78 "Hg

Humidity: 86%

Dew point: 52 °F

Location of MeiningenLocation

Historic Weather in Meiningen — Graph

°F

Meiningen temperature yesterday

Maximum temperature yesterday: 56 °F (at 10:00 PM)
Minimum temperature yesterday: 42 °F (at 3:00 AM)
Average temperature yesterday: 50 °F

Past Weeks' High & Low Weather Summary

 TemperatureHumidityPressure
High66 °F (Apr 21, 4:00 PM)99% (Apr 26, 4:00 AM)30.41 "Hg (Apr 26, 4:00 AM)
Low30 °F (Apr 19, 7:00 AM)22% (Apr 21, 7:00 PM)29.59 "Hg (Apr 27, 7:00 AM)
Average49 °F68%29.99 "Hg
* Reported Apr 19 4:00 AM — May 4 4:00 AM, Meiningen, Weather by CustomWeather, © 2015

Note: Actual official high and low records may vary slightly from our data, if they occured in-between our weather recording intervals... More about our weather records

Advertising

Meiningen weather history for previous 24 hours

 ConditionsComfort  
Time TempWeatherWind HumidityBarometerVisibility
4:00 AM
Mon, May 4
55 °FOvercast.2 mph96%29.77 "Hg18 mi
3:00 AM56 °FPassing clouds.3 mph98%29.75 "Hg7 mi
2:00 AM56 °FLow clouds.3 mph98%29.74 "Hg6 mi
1:00 AM56 °FLow clouds.5 mph98%29.72 "Hg7 mi
12:00 AM56 °FLow clouds.5 mph97%29.72 "Hg10 mi
10:00 PM
Sun, May 3
56 °FDrizzle. Low clouds.5 mph98%29.71 "Hg9 mi
9:00 PM56 °FLow clouds.5 mph97%29.70 "Hg14 mi
8:00 PM56 °FLight rain. Low clouds.5 mph98%29.69 "Hg6 mi
7:00 PM56 °FLight rain. Low clouds.3 mph99%29.69 "Hg2 mi
6:00 PM55 °FLight rain. Low clouds.5 mph99%29.70 "Hg2 mi
4:00 PM54 °FDrizzle. Low clouds.5 mph97%29.72 "Hg2 mi
3:00 PM53 °FDrizzle. Low clouds.6 mph98%29.75 "Hg1 mi
2:00 PM52 °FLight freezing rain. Low clouds.6 mph97%29.75 "Hg1 mi
1:00 PM51 °FDrizzle. Low clouds.6 mph97%29.75 "Hg2 mi
12:00 PM52 °FLow clouds.7 mph96%29.74 "Hg1 mi
11:00 AM51 °FLow clouds.6 mph95%29.78 "Hg2 mi
10:00 AM49 °FDrizzle. Low clouds.5 mph95%29.78 "Hg3 mi
9:00 AM48 °FLow clouds.3 mph96%29.80 "Hg2 mi
8:00 AM46 °FLow clouds.2 mph95%29.81 "Hg2 mi
7:00 AM45 °FDrizzle. Partly sunny.2 mph90%29.81 "Hg7 mi
6:00 AM45 °FPassing clouds.2 mph87%29.81 "Hg7 mi
Weather by CustomWeather, © 2015

See weather overviewHow to use our weather pages